Total_Precipitation_Accumulation
0.01 0.03 0.05 0.12 0.24 0.11 0.00 0.00 0.00 0.00 0.00 0.00 0.00 0.00 0.00 0.00 0.01 0.11 0.03 0.00 0.00 0.00 0.00 0.01 0.02 0.01 0.02 0.04 0.08 0.10 0.09 0.06 0.09 0.11 0.12 0.14 0.10 0.07 0.03 0.02 0.01 0.01 0.03 0.07 0.07 0.08 0.07 0.11 0.15
0.01 0.02 0.05 0.19 0.16 0.01 0.00 0.00 0.00 0.00 0.00 0.00 0.00 0.00 0.00 0.00 0.00 0.00 0.00 0.00 0.00 0.00 0.00 0.01 0.01 0.02 0.04 0.07 0.12 0.14 0.12 0.08 0.11 0.11 0.11 0.12 0.10 0.06 0.07 0.08 0.03 0.01 0.02 0.03 0.04 0.04 0.06 0.12 0.16
0.00 0.01 0.11 0.15 0.04 0.00 0.00 0.00 0.00 0.00 0.00 0.00 0.00 0.00 0.00 0.00 0.00 0.00 0.00 0.00 0.00 0.00 0.01 0.02 0.05 0.04 0.06 0.12 0.24 0.23 0.19 0.13 0.07 0.07 0.07 0.07 0.06 0.06 0.13 0.06 0.02 0.02 0.02 0.03 0.04 0.04 0.05 0.11 0.16
0.01 0.04 0.17 0.08 0.01 0.00 0.00 0.00 0.00 0.00 0.00 0.00 0.00 0.00 0.00 0.00 0.00 0.00 0.00 0.00 0.00 0.00 0.02 0.08 0.17 0.13 0.13 0.19 0.33 0.28 0.22 0.19 0.08 0.06 0.05 0.05 0.03 0.06 0.08 0.05 0.05 0.02 0.02 0.02 0.03 0.04 0.04 0.09 0.14
0.04 0.11 0.29 0.43 0.04 0.00 0.00 0.00 0.00 0.00 0.00 0.00 0.00 0.00 0.00 0.00 0.00 0.00 0.00 0.00 0.00 0.01 0.02 0.10 0.25 0.21 0.17 0.21 0.32 0.27 0.23 0.24 0.12 0.06 0.05 0.04 0.04 0.06 0.08 0.10 0.06 0.02 0.01 0.01 0.01 0.02 0.03 0.06 0.10
0.09 0.18 0.38 0.53 0.05 0.00 0.00 0.00 0.00 0.00 0.00 0.00 0.00 0.00 0.00 0.00 0.00 0.00 0.00 0.00 0.01 0.02 0.02 0.06 0.18 0.17 0.16 0.23 0.31 0.34 0.27 0.22 0.10 0.07 0.06 0.05 0.05 0.07 0.10 0.10 0.05 0.02 0.01 0.02 0.02 0.01 0.01 0.03 0.07
0.10 0.16 0.15 0.12 0.02 0.00 0.00 0.00 0.00 0.00 0.00 0.00 0.00 0.00 0.00 0.00 0.00 0.00 0.01 0.03 0.05 0.05 0.04 0.05 0.06 0.06 0.11 0.22 0.26 0.41 0.44 0.27 0.12 0.09 0.08 0.07 0.05 0.05 0.07 0.05 0.02 0.01 0.01 0.02 0.01 0.00 0.00 0.02 0.04
0.09 0.09 0.10 0.09 0.04 0.03 0.01 0.00 0.00 0.00 0.00 0.00 0.00 0.00 0.00 0.00 0.00 0.00 0.03 0.09 0.09 0.05 0.02 0.02 0.02 0.03 0.09 0.14 0.24 0.45 0.58 0.43 0.19 0.12 0.09 0.09 0.05 0.04 0.04 0.02 0.01 0.01 0.00 0.00 0.00 0.00 0.00 0.01 0.03
0.10 0.08 0.08 0.09 0.07 0.06 0.02 0.00 0.00 0.00 0.00 0.00 0.00 0.00 0.00 0.00 0.00 0.00 0.03 0.07 0.11 0.06 0.03 0.01 0.01 0.02 0.07 0.14 0.22 0.37 0.53 0.49 0.23 0.14 0.13 0.09 0.05 0.06 0.02 0.00 0.00 0.00 0.00 0.00 0.00 0.00 0.00 0.00 0.02
0.13 0.08 0.06 0.09 0.09 0.07 0.03 0.01 0.01 0.00 0.00 0.00 0.00 0.00 0.00 0.00 0.00 0.00 0.00 0.01 0.04 0.04 0.04 0.03 0.01 0.01 0.03 0.07 0.20 0.28 0.30 0.28 0.18 0.17 0.09 0.10 0.16 0.11 0.02 0.00 0.00 0.00 0.00 0.00 0.01 0.00 0.00 0.00 0.00
0.12 0.08 0.05 0.07 0.07 0.04 0.03 0.02 0.01 0.00 0.00 0.01 0.00 0.00 0.00 0.00 0.00 0.00 0.00 0.00 0.00 0.00 0.01 0.01 0.01 0.00 0.01 0.06 0.15 0.21 0.31 0.31 0.33 0.27 0.14 0.12 0.11 0.05 0.00 0.00 0.00 0.01 0.00 0.00 0.01 0.01 0.00 0.00 0.00
0.09 0.05 0.05 0.06 0.04 0.07 0.04 0.02 0.02 0.01 0.01 0.01 0.00 0.00 0.00 0.00 0.00 0.00 0.00 0.00 0.00 0.00 0.00 0.00 0.00 0.00 0.01 0.03 0.10 0.17 0.25 0.34 0.35 0.19 0.05 0.03 0.05 0.04 0.01 0.00 0.01 0.01 0.01 0.00 0.00 0.00 0.00 0.00 0.00
0.10 0.10 0.05 0.06 0.08 0.10 0.06 0.02 0.03 0.04 0.02 0.00 0.00 0.00 0.00 0.00 0.00 0.00 0.00 0.00 0.00 0.00 0.00 0.00 0.00 0.00 0.01 0.03 0.07 0.09 0.21 0.29 0.22 0.17 0.06 0.03 0.02 0.02 0.01 0.00 0.01 0.01 0.01 0.00 0.00 0.00 0.00 0.00 0.00
0.05 0.11 0.11 0.09 0.09 0.06 0.04 0.03 0.05 0.07 0.04 0.01 0.00 0.00 0.01 0.01 0.01 0.01 0.01 0.00 0.00 0.00 0.01 0.01 0.01 0.00 0.01 0.02 0.03 0.07 0.12 0.17 0.17 0.13 0.06 0.04 0.03 0.02 0.02 0.00 0.01 0.02 0.01 0.01 0.00 0.00 0.00 0.00 0.00
0.05 0.06 0.04 0.03 0.03 0.02 0.01 0.03 0.07 0.08 0.06 0.04 0.01 0.01 0.01 0.02 0.02 0.02 0.02 0.01 0.01 0.00 0.01 0.02 0.01 0.02 0.03 0.04 0.05 0.05 0.06 0.08 0.10 0.12 0.10 0.09 0.08 0.07 0.05 0.02 0.01 0.02 0.02 0.03 0.03 0.01 0.00 0.00 0.01
0.02 0.01 0.02 0.04 0.05 0.04 0.02 0.03 0.10 0.11 0.09 0.07 0.03 0.01 0.01 0.02 0.04 0.05 0.05 0.03 0.01 0.01 0.01 0.01 0.01 0.02 0.02 0.02 0.04 0.04 0.04 0.08 0.14 0.16 0.11 0.11 0.14 0.13 0.09 0.06 0.05 0.06 0.06 0.08 0.08 0.04 0.02 0.01 0.01
0.01 0.01 0.03 0.05 0.06 0.09 0.10 0.12 0.13 0.10 0.10 0.08 0.05 0.02 0.01 0.03 0.06 0.09 0.10 0.08 0.04 0.02 0.01 0.01 0.01 0.02 0.01 0.01 0.03 0.05 0.09 0.19 0.29 0.21 0.12 0.20 0.27 0.21 0.20 0.22 0.19 0.16 0.15 0.11 0.09 0.07 0.06 0.04 0.03
0.06 0.08 0.10 0.09 0.08 0.07 0.07 0.07 0.07 0.04 0.03 0.03 0.03 0.02 0.01 0.02 0.06 0.11 0.13 0.12 0.09 0.05 0.03 0.01 0.01 0.02 0.03 0.05 0.08 0.14 0.16 0.22 0.35 0.36 0.32 0.39 0.45 0.40 0.39 0.35 0.27 0.23 0.25 0.20 0.17 0.19 0.13 0.10 0.06
0.12 0.11 0.08 0.05 0.04 0.04 0.03 0.03 0.04 0.03 0.02 0.03 0.03 0.02 0.02 0.02 0.03 0.06 0.08 0.11 0.09 0.05 0.03 0.02 0.02 0.04 0.05 0.09 0.12 0.15 0.19 0.25 0.36 0.35 0.42 0.51 0.56 0.52 0.51 0.51 0.43 0.35 0.31 0.30 0.32 0.40 0.34 0.24 0.11
0.03 0.01 0.01 0.01 0.01 0.01 0.01 0.02 0.02 0.03 0.03 0.03 0.03 0.02 0.02 0.02 0.02 0.03 0.05 0.06 0.06 0.04 0.02 0.02 0.06 0.12 0.15 0.19 0.26 0.29 0.34 0.32 0.35 0.38 0.42 0.47 0.48 0.45 0.47 0.56 0.59 0.50 0.45 0.49 0.46 0.50 0.57 0.47 0.28
0.01 0.01 0.01 0.00 0.00 0.00 0.00 0.01 0.01 0.01 0.02 0.03 0.03 0.03 0.03 0.01 0.02 0.02 0.03 0.04 0.05 0.04 0.05 0.07 0.16 0.30 0.45 0.56 0.68 0.72 0.68 0.57 0.45 0.43 0.47 0.46 0.47 0.48 0.46 0.50 0.53 0.47 0.47 0.51 0.60 0.66 0.74 0.64 0.52
0.00 0.00 0.01 0.00 0.00 0.00 0.00 0.00 0.00 0.01 0.02 0.03 0.03 0.04 0.03 0.02 0.03 0.04 0.06 0.06 0.06 0.08 0.15 0.28 0.49 0.75 0.96 1.08 1.16 1.14 0.93 0.70 0.53 0.48 0.44 0.38 0.39 0.37 0.32 0.39 0.45 0.50 0.58 0.63 0.72 0.65 0.73 0.74 0.60
0.00 0.00 0.00 0.00 0.00 0.00 0.00 0.01 0.02 0.05 0.09 0.09 0.06 0.04 0.03 0.03 0.05 0.11 0.15 0.17 0.24 0.33 0.50 0.76 1.02 1.25 1.38 1.37 1.37 1.37 1.27 1.10 0.87 0.66 0.54 0.45 0.40 0.38 0.34 0.36 0.38 0.38 0.43 0.50 0.53 0.45 0.54 0.61 0.63
0.01 0.02 0.02 0.02 0.02 0.01 0.01 0.03 0.09 0.12 0.10 0.09 0.06 0.03 0.03 0.04 0.09 0.20 0.33 0.45 0.60 0.70 0.87 1.07 1.23 1.38 1.36 1.33 1.32 1.34 1.36 1.28 1.09 0.90 0.72 0.54 0.40 0.36 0.36 0.35 0.41 0.43 0.35 0.36 0.38 0.33 0.39 0.44 0.48
0.03 0.07 0.07 0.05 0.04 0.04 0.06 0.15 0.18 0.13 0.08 0.09 0.06 0.04 0.06 0.10 0.19 0.36 0.53 0.68 0.80 0.91 1.03 1.07 1.08 1.13 1.16 1.14 1.14 1.15 1.12 1.07 0.99 0.90 0.69 0.49 0.38 0.34 0.34 0.31 0.34 0.36 0.31 0.34 0.25 0.14 0.19 0.29 0.36
0.01 0.04 0.10 0.09 0.07 0.10 0.13 0.31 0.31 0.20 0.14 0.12 0.08 0.11 0.18 0.31 0.42 0.53 0.61 0.69 0.76 0.88 0.98 1.00 0.97 0.95 0.91 0.85 0.82 0.82 0.81 0.77 0.71 0.60 0.46 0.35 0.30 0.26 0.23 0.22 0.18 0.16 0.13 0.19 0.23 0.14 0.10 0.11 0.17
0.01 0.03 0.09 0.18 0.13 0.11 0.17 0.37 0.37 0.23 0.16 0.14 0.14 0.17 0.29 0.46 0.63 0.74 0.73 0.70 0.61 0.64 0.75 0.80 0.75 0.71 0.68 0.65 0.65 0.66 0.61 0.54 0.48 0.39 0.31 0.26 0.23 0.20 0.18 0.15 0.10 0.07 0.06 0.08 0.14 0.21 0.20 0.11 0.08
0.02 0.05 0.13 0.23 0.22 0.22 0.27 0.40 0.35 0.25 0.21 0.15 0.17 0.25 0.40 0.58 0.69 0.88 1.02 0.92 0.66 0.49 0.47 0.48 0.50 0.53 0.56 0.57 0.58 0.55 0.46 0.40 0.36 0.32 0.26 0.23 0.21 0.18 0.16 0.11 0.06 0.05 0.06 0.11 0.14 0.10 0.13 0.12 0.12
0.04 0.10 0.16 0.20 0.23 0.33 0.51 0.60 0.50 0.39 0.32 0.25 0.25 0.32 0.41 0.62 0.85 0.98 1.01 0.83 0.69 0.50 0.41 0.41 0.41 0.45 0.50 0.50 0.52 0.45 0.37 0.32 0.28 0.25 0.22 0.18 0.16 0.14 0.12 0.08 0.07 0.07 0.06 0.04 0.03 0.02 0.02 0.03 0.06
0.11 0.19 0.27 0.35 0.38 0.40 0.50 0.57 0.46 0.47 0.49 0.39 0.41 0.49 0.51 0.54 0.56 0.57 0.65 0.66 0.61 0.50 0.44 0.49 0.57 0.58 0.51 0.46 0.44 0.39 0.33 0.29 0.28 0.25 0.20 0.16 0.14 0.12 0.08 0.07 0.07 0.07 0.05 0.03 0.02 0.02 0.01 0.02 0.02